Home > Weather > Uluru > Past weeks

Flag for Australia Weather for the Past 2 Weeks in Uluru, Northern Territory, Australia

Now
91 °F

Sunny.


Feels Like: 87 °F
Forecast: 72 / 103 °F
Wind: 12 mph from East

Location: Ayers Rock

Current Time: Feb 11, 2016 at 10:45:40 AM

Latest Report: Feb 11, 2016 at 9:30 AM


Visibility: N/A

Pressure: 29.98 "Hg (27.24 "Hg at 857m altitude)

Humidity: 11%

Dew point: 30 °F

Location of UluruLocation

Historic Weather in Uluru — Graph

°F

Uluru Temperature Yesterday

Maximum temperature yesterday: 104 °F (at 3:30 PM)
Minimum temperature yesterday: 72 °F (at 5:30 AM)
Average temperature yesterday: 89 °F

High & Low Weather Summary for the Past Weeks

 TemperatureHumidityPressure
High104 °F (Feb 10, 3:30 PM)100% (Feb 1, 1:30 AM)30.09 "Hg (Feb 1, 1:30 AM)
Low66 °F (Feb 5, 5:30 AM)9% (Feb 10, 3:30 PM)29.56 "Hg (Feb 1, 4:30 PM)
Average85 °F33%29.88 "Hg
* Reported Jan 27 8:30 AM — Feb 11 8:30 AM, Uluru, Weather by CustomWeather, © 2016

Note: Actual official high and low records may vary slightly from our data, if they occured in-between our weather recording intervals... More about our weather records

Advertising

Uluru Weather History for the Previous 24 Hours

 ConditionsComfort  
Time TempWeatherWind HumidityBarometerVisibility
8:30 AM
Thu, Feb 11
86 °FSunny.13 mph12%29.98 "HgN/A
7:30 AM79 °FSunny.7 mph21%29.98 "HgN/A
6:30 AM73 °FSunny.8 mph23%29.95 "HgN/A
5:30 AM79 °FClear.9 mph20%29.95 "HgN/A
4:30 AM82 °FClear.13 mph17%29.92 "HgN/A
3:30 AM84 °FClear.13 mph16%29.89 "HgN/A
2:30 AM79 °FClear.8 mph23%29.89 "HgN/A
1:30 AM79 °FClear.8 mph26%29.89 "HgN/A
12:30 AM81 °FClear.9 mph23%29.92 "HgN/A
11:30 PM
Wed, Feb 10
86 °FClear.8 mph19%29.92 "HgN/A
10:30 PM86 °FClear.7 mph18%29.92 "HgN/A
9:30 PM88 °FClear.7 mph18%29.92 "HgN/A
8:30 PM93 °FClear.7 mph12%29.89 "HgN/A
7:30 PM99 °FClear.10 mph10%29.86 "HgN/A
6:30 PM102 °FSunny.13 mph9%29.83 "HgN/A
5:30 PM102 °FSunny.15 mph9%29.83 "HgN/A
4:30 PM102 °FSunny.12 mph10%29.86 "HgN/A
3:30 PM104 °FSunny.14 mph9%29.86 "HgN/A
2:30 PM100 °FSunny.14 mph10%29.89 "HgN/A
1:30 PM100 °FSunny.16 mph10%29.92 "HgN/A
12:30 PM99 °FSunny.9 mph12%29.92 "HgN/A
11:30 AM97 °FSunny.10 mph14%29.98 "HgN/A
10:30 AM95 °FSunny.10 mph16%29.98 "HgN/A
Weather by CustomWeather, © 2016

See weather overviewHow to use our weather pages